Probability
0 0 0 0 0 0 0 0 0 0 0 0 0 0 0 0 0 0 0 0 0 0 0 0 0 0 0 0 0 0 0 0 0 0 0 0 0 0 0 0 0 0 0 0 0 0 0 0 0
0 0 0 0 0 0 0 0 0 0 0 0 0 0 0 0 0 0 0 0 0 0 0 0 0 0 0 0 0 0 0 0 0 0 0 0 0 0 0 0 0 0 0 0 0 0 0 0 0
0 0 0 0 0 0 0 0 0 0 0 0 0 0 0 0 0 0 0 0 0 0 0 0 0 0 0 0 0 0 0 0 0 0 0 0 0 0 0 0 0 0 0 0 0 0 0 0 0
0 0 0 0 0 0 0 0 0 0 0 0 0 0 0 0 0 0 0 0 0 0 0 1 2 2 1 1 0 0 0 0 0 0 0 0 0 0 0 0 0 0 0 0 0 0 0 0 0
0 0 0 0 0 0 0 0 0 0 0 0 0 0 0 0 0 0 0 0 0 0 0 3 9 14 12 7 3 1 0 0 0 0 0 0 0 0 0 0 0 0 0 0 0 0 0 0 1
0 0 0 0 0 0 0 0 0 0 0 0 0 0 0 0 0 0 0 0 0 0 0 3 12 23 27 26 22 16 10 7 4 2 0 0 0 0 0 1 1 2 3 2 1 0 0 1 2
0 0 0 0 0 0 0 0 0 0 0 0 0 0 0 0 0 0 0 0 0 0 0 1 6 13 22 35 43 42 37 32 25 15 7 3 1 0 1 4 5 6 10 11 7 3 1 1 2
0 0 0 0 0 0 0 0 0 0 0 0 0 0 0 0 0 0 0 0 0 0 0 0 0 1 7 18 33 43 48 48 42 31 21 13 5 0 2 6 8 10 17 24 23 19 14 8 5
0 0 0 0 0 0 0 0 0 0 0 0 0 0 0 0 0 0 0 0 0 0 0 0 0 0 0 3 9 17 24 29 30 26 22 15 5 0 1 3 5 8 18 31 39 43 36 21 10
0 0 0 0 0 0 0 0 0 0 0 0 0 0 0 0 0 0 0 0 0 0 0 0 0 0 0 0 0 1 3 5 7 8 8 6 2 0 0 0 1 3 10 22 35 45 42 24 10
0 0 0 0 0 0 0 0 0 0 0 0 0 0 0 0 0 0 0 0 0 0 0 0 0 0 0 0 0 0 0 0 0 0 0 0 0 0 0 0 0 0 2 7 14 23 23 13 5
0 0 0 0 0 0 0 0 0 0 0 0 0 0 0 0 0 0 0 0 0 0 0 0 0 0 0 0 0 0 0 0 0 0 0 0 0 0 0 0 0 0 0 0 2 4 5 3 1
0 0 0 0 0 0 0 0 0 0 0 0 0 0 0 0 0 0 0 0 0 0 0 0 0 0 0 0 0 0 0 0 0 0 0 0 0 0 0 0 0 0 0 0 0 0 0 0 0
0 0 0 0 0 0 0 0 0 0 0 0 0 0 0 0 0 0 0 0 0 0 0 0 0 0 0 0 0 0 0 0 0 0 0 0 0 0 0 0 0 0 0 0 0 0 0 0 0
0 0 0 0 0 0 0 0 0 0 0 0 0 0 0 0 0 0 0 0 0 0 0 0 0 0 0 0 0 0 0 0 0 0 0 0 0 0 0 0 0 0 0 0 0 0 0 0 0
0 0 0 0 0 0 0 0 0 0 0 0 0 0 0 0 0 0 0 0 0 0 0 0 0 0 0 0 0 0 0 0 0 0 0 0 0 0 0 0 0 0 0 0 0 0 0 0 0
0 0 0 0 0 0 0 0 0 0 0 0 0 0 0 0 0 0 0 0 0 0 0 0 0 0 0 0 0 0 0 0 0 0 0 0 0 0 0 0 0 0 0 0 0 0 0 0 0
0 0 0 0 0 0 0 0 0 0 0 0 0 0 0 0 0 0 0 0 0 0 0 0 0 0 0 0 0 0 0 0 0 0 0 0 0 0 0 0 0 0 0 0 0 0 0 0 0
0 0 0 0 0 0 0 0 0 0 0 0 0 0 0 0 0 0 0 0 0 0 0 0 0 0 0 0 0 0 0 0 0 0 0 0 0 0 0 0 0 0 0 0 0 0 0 0 0
0 0 0 0 0 0 0 0 0 0 0 0 0 0 0 0 0 0 0 0 0 0 0 0 0 0 0 0 0 0 0 0 0 0 0 0 0 0 0 0 0 0 0 0 0 0 0 0 0
0 0 0 0 0 0 0 0 0 0 0 0 0 0 0 0 0 0 0 0 0 0 0 0 0 0 0 0 0 0 0 0 0 0 0 0 0 0 0 0 0 0 0 0 0 0 0 0 0
0 0 0 0 0 0 0 0 0 0 0 0 0 0 0 0 0 0 0 0 0 0 0 0 0 0 0 0 0 0 0 0 0 0 0 0 0 0 0 0 0 0 0 0 0 0 0 0 0
0 0 0 0 0 0 0 0 0 0 0 0 0 0 0 0 0 0 0 0 0 0 0 0 0 0 0 0 0 0 0 0 0 0 0 0 0 0 0 0 0 0 0 0 0 0 0 0 0
0 0 0 0 0 0 0 0 0 0 0 0 0 0 0 0 0 0 0 0 0 0 0 0 0 0 0 0 0 0 0 0 0 0 0 0 0 0 0 0 0 0 0 0 0 0 0 0 0
0 0 0 0 0 0 0 0 0 0 0 0 0 0 0 0 0 0 0 0 0 0 0 0 0 0 0 0 0 0 0 0 0 0 0 0 0 0 0 0 0 0 0 0 0 0 0 0 0
0 0 0 0 0 0 0 0 0 0 0 0 0 0 0 0 0 0 0 0 0 0 0 0 0 0 0 0 0 0 0 0 0 0 0 0 0 0 0 0 0 0 0 0 0 0 0 0 0
0 0 0 0 0 0 0 0 0 0 0 0 0 0 0 0 0 0 0 0 0 0 0 0 0 0 0 0 0 0 0 0 0 0 0 0 0 0 0 0 0 0 0 0 0 0 0 0 0
0 0 0 0 0 0 0 0 0 0 0 0 0 0 0 0 0 0 0 0 0 0 0 0 0 0 0 0 0 0 0 0 0 0 0 0 0 0 0 0 0 0 0 0 0 0 0 0 0
0 0 0 0 0 0 0 0 0 0 0 0 0 0 0 0 0 0 0 0 0 0 0 0 0 0 0 0 0 0 0 0 0 0 0 0 0 0 0 0 0 0 0 0 0 0 0 0 0
0 0 0 0 0 0 0 0 0 0 0 0 0 0 0 0 0 0 0 0 0 0 0 0 0 0 0 0 0 0 0 0 0 0 0 0 0 0 0 0 0 0 0 0 0 0 0 0 0
Wind_Speed
9 4 2 4 7 7 5 5 2 5 5 3 2 6 8 6 5 4 4 3 2 3 3 4 7 6 5 5 4 3 3 1 1 1 2 2 3 4 5 5 6 7 7 7 6 6 5 4 3
3 3 5 6 8 6 5 7 7 6 5 2 4 6 9 8 6 6 8 6 5 4 2 1 3 4 5 5 5 5 5 4 3 3 4 4 5 6 6 7 8 8 9 9 9 7 6 5 4
3 4 5 6 6 4 5 7 6 6 4 5 5 7 7 8 12 11 11 5 7 6 3 2 3 4 5 5 6 6 6 5 5 6 5 6 6 7 7 8 10 10 9 10 9 8 7 5 4
4 6 7 9 9 4 3 5 6 5 8 11 5 8 7 9 14 12 12 8 10 8 7 6 5 5 5 6 6 6 6 7 7 7 7 7 8 8 8 8 10 10 7 6 7 6 6 5 4
5 6 9 8 7 5 5 7 7 7 7 11 7 7 7 13 17 16 17 16 14 12 11 11 12 8 6 6 7 7 7 7 8 8 8 8 9 10 9 8 8 8 7 5 5 6 6 5 4
6 6 8 5 4 5 5 6 5 9 8 10 12 5 7 13 23 20 18 19 19 18 16 16 21 19 14 9 7 7 7 8 9 9 9 10 10 10 10 10 9 8 7 6 5 5 5 5 4
6 7 5 4 3 6 8 6 8 7 12 12 11 7 7 19 21 15 15 19 20 21 20 18 17 18 19 17 13 10 9 9 10 10 10 11 11 11 11 10 9 8 8 8 7 6 5 5 5
5 7 5 3 4 5 7 6 9 14 10 8 10 11 9 15 16 11 17 21 22 22 21 20 19 18 16 14 19 19 16 14 13 11 10 10 10 10 10 9 9 9 9 8 8 8 7 6 5
5 8 4 2 2 4 8 8 8 9 9 12 11 9 6 11 11 20 24 24 23 23 20 19 20 19 18 15 19 20 20 21 18 13 13 10 5 5 5 7 9 11 11 10 10 10 8 7 5
7 5 2 2 3 7 9 9 7 10 13 11 11 13 10 10 20 25 24 23 22 21 19 18 18 18 17 15 13 11 12 13 14 13 13 8 6 4 5 6 9 11 11 11 12 11 9 6 2
5 4 2 5 6 8 8 11 12 8 14 9 9 11 12 19 22 21 18 13 13 11 16 17 16 16 16 12 11 9 8 9 11 14 15 11 8 6 5 3 4 5 7 6 7 6 4 3 3
6 6 6 5 6 8 7 7 13 17 9 5 6 7 12 20 19 17 16 14 13 15 18 16 16 16 14 11 10 10 9 9 9 11 14 11 8 8 7 5 4 3 3 4 4 3 4 4 4
6 6 10 17 24 19 21 15 14 11 7 5 8 14 17 17 14 12 12 14 17 18 19 18 16 17 15 11 9 10 9 9 9 9 11 12 9 9 9 6 5 5 3 3 3 4 4 4 5
4 8 9 7 11 9 18 12 10 8 6 9 14 16 15 15 15 16 18 19 18 17 17 17 15 16 15 13 10 7 7 7 7 8 11 12 9 9 10 9 7 6 5 4 4 4 4 4 3
5 9 7 5 6 6 14 15 9 6 7 12 13 12 14 14 15 15 14 13 13 14 14 16 16 16 16 13 12 9 7 7 6 7 9 11 10 10 10 9 9 8 7 6 4 4 3 3 3
5 6 5 3 4 4 13 9 6 7 9 13 11 11 12 13 12 11 12 11 11 12 14 15 16 15 14 12 11 9 8 8 7 7 7 9 11 11 10 9 8 9 9 6 5 4 3 4 4
8 4 3 3 8 6 10 9 7 8 11 12 10 10 11 12 13 11 11 11 11 12 13 15 15 15 15 13 10 9 8 8 7 7 7 10 10 11 9 8 8 10 8 7 7 5 4 5 5
2 2 2 4 6 10 13 12 9 7 11 10 9 10 12 14 12 10 11 11 11 12 13 13 15 15 14 11 9 8 8 7 7 7 8 12 11 12 10 8 9 10 8 8 7 8 6 5 5
2 3 4 5 5 10 14 13 8 5 8 10 10 11 12 11 10 9 11 13 14 16 17 16 17 16 14 12 12 12 11 10 9 7 11 13 13 13 11 9 9 9 9 9 10 9 9 6 4
4 5 4 5 6 9 12 10 5 5 6 5 7 9 10 12 13 13 13 14 15 14 15 15 15 14 14 12 11 11 11 10 10 10 11 12 14 14 12 11 10 10 10 11 10 9 7 5 4
4 3 2 4 5 6 9 5 3 3 3 4 5 6 8 12 11 11 12 13 14 15 17 16 16 15 14 15 11 12 10 11 11 13 12 13 16 15 13 12 10 10 9 9 11 10 10 8 6
2 1 1 4 6 6 7 5 4 2 4 6 7 8 9 10 10 9 12 15 16 16 15 16 16 16 15 15 14 16 13 13 14 12 12 15 15 15 14 13 11 10 9 11 11 11 9 10 9
4 3 1 3 5 4 2 4 2 0 4 6 7 8 8 9 9 9 10 12 15 15 14 14 16 16 16 16 15 15 14 13 12 13 14 14 12 12 13 12 11 10 10 11 12 13 12 9 10
3 2 2 4 4 2 0 4 1 1 1 4 6 8 9 9 8 8 9 10 11 12 13 15 16 16 16 16 15 16 17 17 18 17 16 14 12 11 12 14 11 10 10 11 12 12 13 11 11
9 7 7 7 4 1 3 4 3 3 2 1 5 9 10 8 8 9 10 11 12 14 14 15 16 16 17 17 17 17 17 17 17 17 16 16 14 14 17 17 14 12 12 12 12 12 13 12 11
4 5 5 2 5 4 2 2 4 3 1 2 5 8 9 8 7 8 9 10 11 13 15 16 17 17 17 17 16 15 16 13 13 16 15 15 14 15 19 20 18 18 16 15 12 11 12 11 10
3 3 2 4 2 5 2 1 3 1 4 6 7 8 8 7 7 8 8 9 10 12 14 16 17 17 17 17 17 14 15 15 16 17 15 13 14 16 19 20 20 19 17 15 13 10 11 10 9
4 5 4 3 3 7 5 4 3 2 7 8 9 9 8 6 7 8 8 10 11 11 13 14 15 16 15 16 15 14 15 15 15 15 17 17 18 18 19 20 20 19 17 15 12 10 9 8 6
4 4 5 3 2 2 7 4 5 3 5 8 9 9 7 8 9 8 8 9 11 11 12 13 15 16 16 16 15 14 14 14 15 14 16 16 17 18 18 19 20 19 18 16 13 10 8 7 5
4 3 3 1 2 3 4 6 4 3 4 6 8 7 6 7 7 7 7 9 11 11 12 13 14 15 16 15 15 15 15 15 15 15 16 17 17 17 17 18 19 19 18 17 16 14 10 7 4
Wind_Direction
340 353 50 53 52 51 42 353 324 335 352 8 68 101 92 73 76 84 316 26 73 112 160 202 187 193 200 207 217 225 236 270 5 338 305 295 290 287 289 287 281 272 265 258 249 240 231 221 197
337 356 47 56 71 60 5 341 353 348 327 325 66 65 55 33 18 1 347 356 50 77 86 17 207 209 220 223 228 232 238 248 262 271 278 282 284 282 283 287 293 287 270 261 254 248 239 228 211
10 47 71 65 66 75 2 336 325 314 358 33 62 53 54 15 350 342 324 6 56 60 49 10 243 234 238 240 239 239 240 241 248 254 258 266 272 278 285 292 298 299 279 259 253 249 244 233 222
53 42 52 67 66 37 355 318 323 346 20 19 51 57 68 41 344 326 335 28 43 32 19 359 310 282 271 265 259 254 253 252 254 256 256 265 270 270 271 285 295 298 288 261 252 249 252 248 232
57 69 59 55 47 360 350 339 344 33 30 5 28 75 52 4 353 4 18 32 33 25 16 6 351 332 310 290 278 269 264 263 264 264 264 268 275 279 270 268 281 288 287 275 259 256 259 261 252
52 62 72 64 34 347 355 347 14 34 21 14 9 60 70 355 5 6 21 35 33 28 22 15 7 0 348 326 303 288 278 271 273 273 273 273 268 275 278 266 267 276 281 277 265 258 261 269 274
80 74 79 84 42 18 358 17 32 28 35 10 349 36 8 358 357 355 21 34 32 28 24 17 11 6 0 352 341 324 307 294 286 284 280 284 280 274 282 281 273 274 275 274 266 255 253 260 274
101 88 64 51 57 26 360 49 51 37 40 6 23 36 3 337 338 359 33 35 31 28 24 16 12 10 4 2 4 1 352 340 325 308 291 284 286 281 284 292 288 281 275 270 264 257 248 245 251
74 71 66 57 85 45 21 53 52 44 55 47 47 41 353 327 357 33 33 29 27 25 23 17 14 12 8 10 11 10 9 3 357 344 330 311 290 280 278 278 281 281 276 269 263 259 251 243 242
67 86 74 39 83 89 55 47 48 61 44 35 30 25 13 22 37 39 35 28 23 18 18 20 17 14 11 10 8 6 7 3 3 360 353 342 328 305 286 267 269 275 279 277 267 259 254 248 244
70 104 65 52 71 90 88 59 34 80 47 21 18 13 21 38 41 40 36 28 20 11 17 17 17 15 15 11 8 7 2 1 0 2 359 352 345 337 326 308 289 284 283 277 268 262 247 235 227
74 47 44 29 62 70 69 80 62 57 71 32 31 31 36 40 36 31 27 21 15 17 15 10 13 12 12 10 8 10 5 2 0 357 359 358 353 349 340 326 307 291 279 276 267 250 243 241 238
62 72 67 83 82 87 87 81 84 60 53 44 48 44 38 36 28 22 24 23 19 17 11 5 6 8 3 3 2 8 4 3 358 358 0 1 356 350 341 332 323 308 289 269 264 253 248 245 243
68 88 113 91 89 78 82 73 75 50 31 44 45 42 36 32 25 24 23 22 18 14 9 3 4 5 358 357 353 353 354 353 355 360 359 0 358 351 344 338 332 323 311 287 264 255 250 248 242
101 96 87 81 97 136 92 59 61 62 49 50 39 35 35 31 29 27 21 19 14 9 5 3 1 1 355 351 347 346 342 345 350 352 354 358 357 352 347 339 337 335 323 305 285 265 247 247 242
64 72 75 46 70 91 87 88 56 49 58 51 35 28 29 26 25 22 20 16 10 6 2 360 359 355 351 347 341 339 338 340 342 343 348 353 353 351 346 337 332 331 325 312 293 271 254 244 238
35 62 76 50 30 58 84 100 54 38 56 50 31 23 22 20 18 14 13 9 3 1 357 355 355 354 350 345 341 337 335 337 338 339 345 347 347 347 341 329 326 327 323 317 305 286 252 247 243
4 54 59 54 36 61 88 93 68 43 59 49 31 22 19 16 4 357 3 2 359 359 357 355 354 354 350 347 343 340 338 338 334 335 341 340 338 339 336 324 327 327 321 319 315 300 276 248 241
163 106 80 59 68 78 92 93 74 49 53 44 31 21 12 2 349 356 5 2 360 0 358 356 354 354 355 354 350 345 341 338 334 334 338 333 333 333 328 327 325 323 317 310 306 301 288 265 234
96 99 91 92 79 96 100 90 73 47 52 43 30 16 1 354 355 357 2 360 356 354 352 352 351 350 355 353 346 340 332 331 331 333 332 332 332 328 327 326 322 317 314 310 307 305 291 274 222
51 108 136 135 78 93 116 98 96 54 56 42 24 9 2 360 350 351 359 357 353 353 353 349 348 349 354 353 349 343 337 337 340 337 334 334 330 325 322 319 317 313 310 305 305 300 288 279 258
333 349 254 169 146 176 156 163 193 159 39 19 3 358 355 351 348 353 358 356 353 349 347 347 348 349 354 355 350 347 344 339 335 329 324 324 322 318 317 315 312 309 306 302 301 300 291 279 266
272 313 245 172 152 119 143 132 214 47 21 358 343 338 337 341 345 351 356 354 350 346 346 349 348 349 351 350 347 343 339 335 329 326 322 320 314 308 307 306 304 303 301 297 296 296 290 277 263
315 30 90 65 92 126 291 165 229 349 25 329 329 327 328 335 343 347 349 351 346 346 352 351 347 347 348 346 345 342 339 336 332 332 329 328 323 317 313 311 304 298 295 294 293 290 286 278 266
26 46 19 2 1 303 76 100 190 183 170 331 330 324 323 332 342 344 346 350 351 351 354 349 345 347 348 346 345 341 340 335 332 330 327 327 327 327 326 324 315 308 299 292 288 285 281 275 265
27 74 98 288 282 297 40 155 214 188 203 306 319 312 316 329 338 341 345 348 349 351 355 350 347 347 347 345 342 340 340 336 332 327 325 325 326 326 326 324 318 312 305 298 289 285 279 272 261
72 73 124 152 294 283 262 203 244 238 325 313 310 313 323 332 338 341 347 352 350 355 357 349 346 345 344 342 339 338 340 337 333 328 327 327 327 326 328 325 322 317 311 302 291 280 279 272 260
84 124 77 71 338 304 293 223 218 291 307 309 315 321 328 342 343 348 355 356 353 357 353 344 344 342 340 340 338 339 335 334 333 331 330 330 328 330 331 330 328 326 323 316 303 285 280 274 261
37 58 84 96 155 240 296 280 170 215 289 305 307 313 330 343 344 351 357 357 351 353 350 343 344 342 341 339 336 334 334 335 335 334 331 330 330 332 336 337 336 337 339 336 327 313 297 283 269
94 98 114 119 263 203 237 267 165 188 285 296 303 316 335 337 339 350 355 353 348 349 347 344 344 342 340 337 335 334 334 336 337 335 333 332 333 334 339 341 342 343 347 350 348 344 341 327 306